Temp
18 18 18 18 19 19 19 19 19 19 19 20 20 20 20 20 20 21 21 22 23 23 23 24 23 23 23 23 24 24 24 24 23 21 21 27 30 29 30 30 31 29 27 27 28 27 24 24 24 24 24 24 24 25 25 25 25 25 25 24 23 23 25 26 27 26 26 26 25 24 24 25 26 25 24 24 25 25 25 25 24 25 24 24 23 23 22 21
18 18 18 18 18 18 19 19 19 19 19 20 20 20 20 20 20 21 21 22 23 23 24 24 24 24 23 24 24 24 24 22 21 20 24 30 30 29 30 30 30 29 28 27 27 27 25 25 24 23 25 25 25 26 25 25 25 25 25 24 24 25 26 26 27 26 26 26 26 25 24 24 25 25 25 25 25 25 25 24 24 24 23 22 22 22 21 21
18 18 18 18 18 18 18 18 19 19 19 20 20 20 20 20 20 21 21 22 23 24 24 24 24 24 24 24 24 24 22 20 22 25 29 31 30 30 30 29 30 30 29 28 27 27 28 27 25 24 25 26 27 26 26 26 25 26 25 25 26 27 26 25 26 27 26 26 26 25 25 24 25 25 25 25 24 24 25 23 23 23 22 22 22 21 21 21
18 18 18 18 18 18 18 18 18 19 19 19 20 20 20 20 20 21 22 22 23 24 24 24 24 24 24 24 24 23 20 22 28 31 31 31 31 31 30 29 29 29 29 28 28 28 29 28 26 27 27 27 28 27 27 27 26 26 25 26 27 26 27 26 25 26 25 25 26 25 25 25 25 25 25 25 25 25 25 24 24 23 22 22 22 21 21 21
18 18 18 18 18 18 18 18 18 19 19 19 20 20 20 20 20 21 22 23 23 24 24 24 24 24 24 24 24 22 22 26 31 31 31 31 31 31 30 29 29 29 28 28 28 28 28 28 27 28 28 28 28 28 28 27 26 27 25 27 27 26 27 27 25 25 25 24 25 25 25 25 25 25 25 25 26 26 25 25 24 23 23 22 22 22 22 21
18 18 18 18 18 18 18 18 18 19 19 19 20 20 20 20 20 21 22 23 24 24 24 24 24 24 24 24 23 22 24 28 30 31 32 32 31 31 31 30 29 29 28 28 28 28 28 28 28 29 28 29 29 28 29 28 27 28 27 27 26 26 27 26 24 25 24 25 25 25 25 25 25 26 25 25 27 26 25 25 24 23 23 23 22 22 22 21
18 18 18 18 18 18 18 18 18 19 19 19 19 20 20 20 21 21 22 23 24 24 24 24 24 24 24 23 22 23 25 28 30 31 32 32 31 31 30 30 29 29 28 28 27 28 29 28 29 30 29 29 29 29 29 28 28 28 28 27 26 26 26 25 24 24 24 25 25 24 25 25 26 26 24 25 27 25 25 25 24 24 24 23 23 22 22 22
18 18 18 18 18 18 18 18 19 19 19 19 20 20 20 20 21 21 22 23 23 24 24 24 24 24 24 23 23 25 26 29 31 31 31 32 31 31 30 30 29 29 28 27 27 28 29 29 30 30 29 29 29 29 29 28 28 29 28 27 26 25 24 24 24 24 24 24 24 24 25 25 25 24 24 26 26 25 25 24 24 24 24 23 23 23 22 22
18 18 18 18 18 18 18 19 19 19 20 20 20 20 20 21 21 22 22 23 23 24 24 24 24 24 23 22 23 26 29 30 31 31 31 32 31 31 30 29 28 28 27 27 28 28 28 30 30 30 29 29 29 29 29 29 29 29 28 27 26 25 24 24 24 24 23 23 23 25 25 24 24 24 25 26 25 24 24 24 24 24 23 23 23 23 23 22
18 18 18 18 19 19 19 19 19 20 20 20 20 20 21 21 22 22 23 23 23 23 24 24 24 23 23 23 24 27 30 30 31 31 32 32 31 30 29 29 29 28 27 27 27 28 29 30 30 30 30 29 29 29 30 29 29 28 26 26 25 24 24 24 24 24 23 23 24 25 25 24 24 25 26 26 24 24 24 24 24 23 23 23 23 23 23 23
18 18 19 19 19 19 19 20 20 20 20 21 21 21 21 22 22 23 23 23 23 23 23 23 23 23 22 24 25 28 30 30 30 31 31 31 31 30 29 29 29 28 27 26 26 28 29 29 28 29 30 30 30 30 30 29 28 27 26 26 24 24 25 24 25 24 23 24 24 24 25 25 25 25 26 26 24 24 23 23 23 23 23 23 23 23 23 23
18 18 19 19 19 19 19 20 20 20 21 21 21 21 22 22 23 23 22 23 23 23 23 23 23 22 22 23 25 28 30 30 30 31 31 31 30 30 29 29 29 29 29 27 26 28 29 29 29 30 30 30 30 30 30 28 27 27 27 28 25 25 25 24 25 24 23 25 24 24 24 24 25 26 26 24 24 24 23 23 23 23 23 23 24 23 23 23
18 19 19 19 19 20 20 20 20 21 21 21 21 21 22 23 22 22 22 22 23 23 23 23 22 21 22 25 27 29 30 30 30 30 30 30 30 29 29 29 29 29 29 28 28 29 29 29 29 30 30 30 30 30 30 28 27 28 27 27 26 25 26 24 24 24 24 24 23 24 24 24 26 26 25 24 24 24 23 23 23 23 23 23 24 23 23 24
18 19 19 20 20 20 20 20 21 21 22 22 22 22 23 22 22 22 22 22 23 23 22 22 21 21 23 27 29 29 29 29 29 30 30 30 30 29 29 29 28 28 29 29 29 29 29 29 29 29 30 30 30 30 30 28 28 28 27 26 25 24 25 25 23 24 25 24 23 24 23 25 27 25 24 24 24 24 23 23 23 23 23 23 24 24 23 24
18 19 19 20 20 20 20 20 21 21 22 23 22 23 23 22 22 22 22 22 22 22 22 21 20 21 23 27 29 29 29 29 29 30 30 30 30 29 29 29 29 28 28 28 29 29 29 29 29 30 30 30 30 30 30 29 28 28 26 24 25 23 24 26 24 24 26 24 23 24 23 25 26 25 24 24 24 24 23 23 23 23 23 23 24 24 24 24
19 19 19 20 20 20 21 21 21 22 22 23 23 23 23 21 21 21 22 22 21 21 20 20 19 21 24 27 28 28 28 28 30 31 30 30 30 30 30 29 29 28 28 28 29 29 29 29 29 29 30 30 30 30 29 27 26 27 25 23 24 24 24 26 25 23 25 25 24 24 24 25 25 23 23 23 24 24 23 24 23 23 23 23 24 24 24 24
19 19 19 20 20 20 21 21 22 22 23 23 23 23 22 21 21 21 21 21 20 20 19 20 19 21 26 28 28 28 28 29 30 31 31 30 30 30 30 29 29 28 28 28 29 29 29 29 29 29 29 29 29 29 27 23 23 25 25 24 24 25 24 24 25 24 23 25 25 24 24 26 25 23 23 23 24 24 24 24 24 23 23 24 24 24 25 24
19 19 19 20 20 20 21 21 22 22 23 23 23 22 21 20 20 20 20 20 19 20 20 20 20 23 27 29 29 29 29 29 30 31 31 30 29 29 30 29 29 28 28 29 29 30 30 29 29 29 29 28 29 29 25 22 24 24 24 24 24 25 24 24 26 25 23 24 25 24 24 25 25 23 24 23 24 25 24 24 24 24 24 24 24 24 25 25
19 19 20 20 20 20 21 21 22 22 23 23 22 21 20 20 19 19 18 19 21 24 25 24 24 27 28 29 29 29 30 30 30 31 30 30 29 29 29 29 29 29 29 30 29 29 30 30 28 28 28 28 29 29 27 26 27 26 25 25 24 24 24 26 27 25 24 24 24 24 24 25 25 24 24 23 23 25 25 24 24 24 24 24 24 25 25 25
19 19 20 20 20 21 21 21 22 22 23 22 20 20 21 22 23 22 19 19 22 25 28 26 26 28 28 29 29 30 31 30 30 30 30 30 29 29 29 29 29 29 29 29 29 29 29 29 28 27 27 28 28 29 29 28 28 27 27 26 25 24 24 27 28 25 24 25 25 25 25 25 26 25 24 23 23 24 24 24 24 24 24 24 24 24 25 25
19 19 20 20 20 21 21 21 22 22 22 22 20 22 25 26 26 26 24 23 22 22 25 26 26 27 28 29 29 29 30 29 30 29 29 30 30 29 29 29 29 29 28 28 28 28 28 27 27 28 28 28 29 29 28 28 28 28 27 26 25 24 25 27 28 25 24 25 25 24 24 25 25 25 24 23 23 24 24 24 24 24 24 24 24 24 25 25
19 19 19 20 20 21 21 21 22 22 22 22 21 22 25 25 25 26 25 25 25 23 23 24 24 25 27 27 28 29 29 29 30 29 29 29 29 29 29 28 28 28 27 27 28 28 27 27 28 28 28 28 28 28 28 28 28 28 27 25 24 25 26 26 25 24 24 25 25 25 24 25 25 25 24 23 23 23 23 24 24 24 24 24 24 24 24 25
19 19 19 20 21 21 21 21 22 22 21 21 21 22 24 25 25 25 24 25 26 25 24 24 24 25 25 26 27 28 28 28 30 29 29 29 29 29 29 28 28 28 27 28 28 26 25 27 29 28 27 28 28 28 28 28 28 27 27 24 24 26 26 25 24 24 24 25 25 25 24 25 25 25 24 23 23 23 23 23 24 23 24 24 24 24 23 24
19 19 19 20 21 21 21 21 21 21 21 21 21 23 25 25 25 25 25 26 26 26 25 25 25 25 26 27 28 28 28 28 29 30 29 30 29 28 29 29 28 28 28 28 28 27 26 28 29 27 28 29 29 29 28 28 27 27 27 25 25 27 26 26 25 24 24 24 25 25 23 24 25 26 25 23 22 23 23 23 23 23 24 24 24 24 23 23
18 18 19 20 21 21 21 20 20 21 21 21 23 25 25 25 25 25 26 26 26 27 27 25 25 26 27 28 28 28 28 29 29 29 29 30 30 29 29 29 28 28 28 27 27 27 28 29 28 29 29 29 29 29 28 28 26 26 28 28 28 29 28 27 26 25 23 23 25 25 22 23 25 26 26 23 22 23 23 23 23 23 23 23 23 24 23 23
18 18 19 20 21 21 21 21 20 20 22 23 25 26 25 26 26 26 26 25 25 28 29 27 27 28 29 27 27 28 29 29 30 29 29 30 30 30 30 29 29 29 28 28 28 28 28 29 29 30 29 29 29 28 28 29 25 24 27 30 30 29 28 26 25 24 23 22 25 25 23 22 24 27 27 24 23 23 22 23 23 23 23 23 23 24 24 23
17 17 19 19 20 21 21 22 21 21 24 25 25 26 26 27 27 27 26 23 23 28 30 29 28 29 29 28 28 29 28 29 30 30 30 31 31 31 30 29 29 29 29 28 26 27 29 29 29 29 30 29 28 28 29 29 26 25 28 30 30 30 28 27 25 24 24 23 24 25 24 22 22 25 25 23 24 23 22 22 22 22 23 23 23 24 24 24
18 18 18 19 20 20 21 21 20 22 25 26 25 26 27 27 27 27 25 22 24 29 30 29 29 29 29 28 28 29 29 30 31 30 30 31 31 31 30 30 29 29 30 28 25 27 30 30 30 31 30 29 29 29 29 29 28 28 29 29 29 29 28 27 25 24 25 24 22 23 24 22 22 24 24 23 24 24 24 23 23 22 23 23 23 23 24 24
18 19 19 20 20 21 20 20 21 23 25 25 26 27 27 27 28 27 24 22 26 30 30 30 30 29 29 28 28 30 30 30 30 30 30 30 31 31 30 30 30 29 29 29 28 29 30 30 31 31 30 29 30 31 30 29 30 30 29 28 28 27 27 27 26 25 24 23 22 22 23 22 22 24 24 23 24 25 26 25 23 23 23 23 23 23 24 23
20 21 21 21 20 20 20 20 22 25 25 26 27 27 28 28 27 25 22 23 27 29 30 30 30 29 29 29 29 29 30 30 30 30 30 30 30 31 30 29 30 30 29 29 29 30 30 29 30 30 31 31 31 31 29 30 30 30 29 29 27 27 27 27 26 25 23 22 22 22 23 23 22 23 24 25 26 27 27 26 25 24 23 23 23 23 24 23
22 23 24 23 22 21 21 22 24 25 25 26 27 28 28 27 26 22 22 25 27 28 30 30 30 29 29 29 29 29 30 30 30 30 30 30 30 30 29 29 29 29 28 28 28 29 29 29 29 31 31 31 31 31 29 29 29 29 30 29 26 25 25 25 24 24 22 22 22 22 23 23 21 23 27 27 27 27 27 27 27 26 24 23 23 23 24 24
24 25 25 24 23 22 23 24 25 25 26 26 27 28 27 25 23 22 24 27 26 27 29 29 29 30 29 30 30 29 30 30 30 30 30 29 29 29 29 28 28 26 24 24 26 27 29 30 30 30 30 30 31 30 29 29 28 28 29 26 23 22 22 22 22 22 22 22 23 23 23 23 22 25 29 29 27 27 27 28 28 27 26 24 23 23 23 24
26 26 25 24 24 23 24 25 25 25 26 26 27 28 27 23 22 22 25 26 25 27 30 29 29 29 29 30 30 29 30 30 30 30 29 29 29 29 29 28 28 26 24 24 24 24 27 30 30 30 31 30 31 30 27 28 28 28 27 25 23 22 22 22 21 21 22 22 23 23 23 22 22 26 30 29 29 28 27 27 27 27 27 26 24 23 23 24
26 26 26 25 24 24 25 24 25 26 26 26 27 28 25 22 22 24 25 26 27 29 29 28 28 29 29 30 29 30 30 29 30 30 29 29 28 28 29 29 28 29 28 25 24 23 23 25 29 31 31 30 31 31 30 30 30 29 29 28 24 23 22 22 22 22 22 22 22 23 23 22 23 27 29 28 27 26 25 26 26 26 26 26 25 23 23 23
27 26 26 26 25 25 25 25 25 26 25 26 27 27 23 21 23 24 25 27 28 29 28 28 29 29 29 30 29 30 30 29 29 29 29 29 27 27 29 29 28 29 28 24 24 24 22 23 30 31 30 31 32 32 32 32 30 28 29 28 25 26 26 23 22 23 22 22 22 22 23 24 26 28 28 27 27 26 25 25 26 26 26 25 25 24 23 23
27 26 26 26 25 25 26 25 25 26 26 27 27 25 23 23 24 25 27 28 28 28 27 27 29 28 26 28 29 29 30 29 29 29 28 28 28 27 28 29 29 29 29 26 25 25 22 24 31 31 30 32 32 31 32 31 29 27 26 26 26 29 29 24 21 22 22 22 22 22 23 25 26 29 29 28 28 28 26 26 26 26 25 25 25 24 23 23
27 26 25 25 25 26 26 25 25 25 27 28 26 23 24 26 26 27 28 28 27 28 27 25 27 26 24 25 27 29 29 29 29 28 27 27 27 26 27 28 29 29 29 28 27 27 24 24 30 32 31 32 31 30 32 31 31 28 26 27 28 28 29 26 22 22 22 22 22 22 22 23 23 26 29 30 30 30 28 26 26 25 25 25 25 24 23 23
27 26 25 25 25 25 25 26 25 25 27 28 26 24 25 26 27 27 27 27 26 28 27 25 26 27 25 24 26 29 29 27 27 27 26 26 25 26 26 26 28 28 28 28 27 28 26 24 27 31 31 32 31 30 30 30 32 30 29 30 28 25 25 24 23 22 22 22 22 22 22 22 22 24 29 31 32 32 29 26 26 26 25 25 24 23 23 23
26 26 25 25 25 26 26 25 25 26 27 26 25 25 25 26 27 27 27 26 26 27 27 26 26 27 27 26 26 28 28 26 27 27 25 25 25 26 26 25 27 27 26 27 27 29 28 24 25 29 31 31 31 30 27 27 30 31 30 31 29 26 25 24 23 23 22 22 22 22 22 22 24 27 29 32 34 32 29 28 28 26 25 24 24 23 23 23
23 26 26 25 25 26 25 25 25 26 27 25 24 25 25 26 27 27 26 26 27 27 27 27 27 27 27 27 26 27 27 27 27 27 25 25 25 26 26 25 25 26 26 27 28 28 29 26 23 27 30 28 28 30 29 28 30 29 28 27 27 27 26 25 24 23 23 22 22 22 22 23 27 29 30 33 33 30 29 30 28 24 24 24 23 23 23 23
22 26 26 25 26 25 26 26 24 24 25 24 24 25 26 26 27 26 26 27 27 27 26 26 26 25 25 26 26 26 27 27 27 26 25 25 24 25 26 26 25 25 26 27 28 28 28 26 23 24 26 25 27 31 32 31 31 30 29 28 28 27 25 24 23 22 23 22 22 22 21 24 29 29 28 31 31 28 27 29 28 24 24 24 23 23 23 23
23 26 25 25 26 25 26 26 23 22 24 24 24 24 26 26 26 25 25 26 26 26 26 25 25 25 25 25 26 25 25 26 26 25 25 25 25 25 26 26 25 25 26 26 26 27 27 27 24 23 25 26 29 31 29 28 30 30 30 30 30 29 26 23 22 22 23 22 22 22 21 26 30 26 25 27 27 27 26 27 28 25 24 24 23 23 23 23
24 25 25 25 25 25 26 25 23 22 23 24 23 24 25 25 24 25 24 24 25 25 25 24 24 25 25 25 25 25 24 24 25 25 25 25 25 25 25 26 25 26 26 26 25 26 27 26 23 23 26 28 30 31 28 28 30 30 30 30 30 30 28 27 25 24 24 22 23 22 21 26 29 25 23 25 25 26 26 26 27 24 23 24 23 23 23 23
20 21 23 24 25 26 25 24 23 23 22 23 23 23 24 24 24 24 24 23 24 24 24 24 24 24 24 24 24 24 24 23 23 24 25 24 25 26 25 25 25 25 26 26 26 26 25 24 23 22 23 25 27 28 27 28 29 29 30 30 31 30 29 28 26 25 24 22 23 23 21 26 30 26 24 25 24 26 25 24 25 24 24 24 23 23 23 23
20 21 21 22 23 24 23 22 21 22 22 22 23 22 23 24 24 23 23 23 23 24 23 23 23 23 24 24 24 24 23 24 23 23 24 23 24 25 25 25 25 25 26 26 26 26 25 25 24 22 21 22 22 23 23 25 25 26 29 30 31 30 29 27 25 23 23 22 22 23 22 27 31 29 27 26 25 26 26 24 24 24 23 23 23 23 22 22
22 22 21 22 22 21 21 21 20 20 22 22 22 22 21 22 23 23 24 23 23 23 23 22 23 23 23 23 23 23 22 23 23 23 22 23 23 24 24 24 25 25 26 26 26 26 26 25 24 23 22 22 22 23 24 24 23 24 27 29 30 30 29 29 25 23 24 23 22 24 25 26 30 32 30 28 26 26 26 24 24 24 23 23 23 22 22 22
20 20 19 20 21 21 21 20 19 19 21 21 21 21 20 20 21 22 23 23 22 22 22 22 22 22 22 22 23 22 21 22 23 22 22 22 22 23 23 24 25 25 26 26 26 26 25 24 24 24 23 24 24 25 25 24 23 24 25 27 29 29 28 28 26 24 26 23 22 26 26 24 28 32 32 30 28 27 26 25 25 24 23 23 23 22 22 22
19 18 16 17 19 20 20 20 19 19 20 21 21 21 20 20 20 21 22 23 22 22 22 21 21 21 21 21 22 21 20 21 21 20 21 21 21 21 22 24 25 25 25 26 26 26 24 23 24 24 24 25 25 25 25 25 25 25 25 25 28 29 28 28 27 27 27 25 24 27 27 26 30 33 33 31 27 26 26 25 24 24 23 23 22 22 22 22
17 17 16 16 18 19 18 18 19 19 20 21 21 20 19 19 20 20 21 22 21 21 21 21 20 20 20 21 21 20 19 20 20 19 20 21 20 20 22 23 24 24 25 25 25 25 24 24 25 24 23 24 25 25 25 25 25 25 26 25 27 28 28 28 28 28 28 27 27 27 27 27 30 30 30 29 25 25 25 24 24 24 23 23 23 23 22 22
16 16 16 16 18 18 18 18 19 20 20 19 20 20 19 19 19 19 20 21 20 20 20 20 19 20 20 20 20 20 19 19 19 19 19 20 19 20 21 22 23 24 24 24 25 25 24 23 25 25 23 23 25 26 26 26 25 25 25 25 26 27 27 27 27 26 27 27 27 26 26 28 29 26 26 27 25 25 25 24 24 24 23 23 23 22 22 22
13 13 13 16 18 18 17 18 18 19 19 18 18 19 19 18 18 18 20 20 19 19 19 19 19 20 20 20 20 19 19 19 19 19 19 19 19 21 21 22 22 22 22 24 25 25 25 24 24 24 22 22 24 25 25 26 26 25 24 24 25 25 25 26 25 24 24 25 27 26 27 29 28 25 25 26 25 26 26 25 25 24 22 23 24 23 23 22
12 13 12 15 18 17 16 18 18 18 19 18 18 18 18 18 18 18 20 20 20 20 19 19 19 19 19 19 19 19 19 19 19 19 19 19 19 20 20 21 21 21 21 23 24 24 25 24 24 23 22 21 23 24 25 25 24 23 24 23 23 24 24 24 24 24 23 23 24 25 25 26 25 23 24 26 26 27 27 25 24 24 23 23 24 24 23 23
Height
798 797 796 795 794 793 791 790 789 788 787 786 785 783 782 781 780 779 778 777 777 776 776 776 775 775 774 773 772 772 771 770 769 770 767 759 756 758 759 761 762 764 766 766 767 769 772 775 775 777 779 781 782 782 781 782 783 789 801 810 812 812 807 798 796 795 792 790 789 788 787 789 788 785 781 780 783 784 784 783 780 779 778 780 782 784 788 791
798 797 796 794 793 792 791 790 789 787 786 785 784 783 781 780 779 778 777 776 776 775 775 775 774 774 773 773 771 771 770 768 768 766 760 754 755 756 757 759 761 762 763 765 766 768 772 775 775 777 780 783 782 781 783 782 784 792 803 809 807 803 796 789 788 787 787 788 787 787 787 788 787 784 781 786 790 787 788 789 784 786 785 783 784 786 789 792
798 797 795 794 793 791 790 789 788 787 786 784 783 782 781 779 778 777 776 775 774 774 774 774 774 772 772 772 770 771 769 768 767 761 754 752 754 754 756 757 759 761 762 764 766 768 770 772 773 777 782 785 781 781 785 784 786 791 798 806 800 791 789 787 785 783 784 784 786 787 785 787 785 782 782 787 792 790 790 790 788 791 790 787 787 787 790 793
797 796 795 793 792 791 790 788 787 786 785 784 782 781 780 778 777 776 775 774 773 773 773 773 773 771 772 770 771 771 768 770 765 754 752 752 752 753 755 756 758 760 762 764 766 768 769 770 772 774 781 786 782 782 786 784 786 790 794 799 791 787 789 785 783 781 781 782 784 786 786 787 783 780 783 786 793 794 789 785 784 787 787 787 787 788 790 793
797 795 794 793 791 790 789 788 786 785 784 783 781 780 779 777 776 775 774 773 772 772 772 772 772 771 771 770 771 769 769 777 765 749 752 752 752 753 754 756 758 760 762 764 766 767 769 770 772 776 781 785 784 785 785 780 781 788 790 788 784 786 788 783 782 781 781 782 784 787 787 786 782 782 783 784 791 791 783 780 779 780 782 783 785 787 790 792
796 795 793 792 790 789 788 787 785 784 783 782 780 779 777 776 775 773 772 771 771 771 771 771 771 770 770 770 771 768 773 778 759 748 753 751 752 753 753 756 758 760 762 764 765 767 769 770 775 780 782 784 785 785 782 776 777 787 789 784 784 785 785 784 782 782 781 783 785 787 785 783 784 785 784 784 785 781 776 775 777 778 780 781 783 787 790 792
796 794 793 791 790 789 787 786 785 783 782 781 779 777 776 775 773 772 770 770 770 770 770 770 770 770 769 770 770 768 773 769 752 750 752 750 752 752 753 756 757 760 761 763 764 767 769 772 776 778 782 785 784 782 779 776 776 785 788 784 784 784 784 784 782 783 783 784 785 784 783 785 788 788 785 784 781 777 775 774 776 779 781 783 785 787 789 791
795 793 792 790 789 788 786 785 783 782 781 779 778 776 775 773 772 771 769 769 769 769 770 769 770 769 769 770 770 772 772 761 750 751 751 750 752 751 753 755 757 759 759 762 763 766 769 772 775 775 784 785 781 781 777 778 781 782 785 783 783 785 785 783 783 785 785 785 784 783 786 787 788 788 787 785 780 777 775 775 778 781 783 785 786 788 790 791
794 793 791 790 788 787 785 784 782 781 779 778 777 775 773 772 771 769 768 768 768 769 768 768 769 768 770 768 770 775 767 753 750 751 750 751 751 751 753 754 756 758 759 762 762 765 769 772 772 772 781 781 778 779 776 782 786 780 781 782 783 786 785 784 785 786 787 787 785 786 789 788 785 787 788 784 780 778 776 778 780 783 786 787 788 789 789 791
794 792 790 789 787 786 784 782 781 779 778 777 775 774 772 771 769 768 767 767 767 768 767 768 768 768 770 767 773 777 759 749 751 750 750 751 751 752 753 753 756 757 759 761 762 764 766 768 768 766 772 776 777 778 776 781 781 776 780 783 785 787 786 786 787 786 788 787 787 790 792 789 784 788 792 784 780 780 780 783 783 784 788 788 789 789 789 791
793 791 789 788 786 785 782 781 779 778 777 775 774 772 771 769 768 767 766 766 766 767 767 767 767 768 768 767 775 773 753 749 752 749 751 751 751 752 752 754 754 756 758 760 762 762 763 764 762 765 773 776 776 777 775 774 774 776 780 785 789 788 787 788 788 788 789 789 788 789 791 789 786 790 791 784 780 781 783 786 786 787 789 789 790 790 790 791
792 790 788 786 785 783 781 780 778 776 775 773 773 771 769 768 766 766 765 766 765 766 766 766 767 767 767 770 771 762 750 751 751 750 752 751 752 752 752 754 754 755 757 759 761 760 762 762 761 769 774 774 778 781 775 770 774 778 778 787 793 791 791 790 789 790 791 791 787 789 797 796 792 790 786 783 782 783 786 788 789 790 790 790 791 791 791 791
791 789 787 785 783 782 780 778 776 775 773 772 771 769 768 766 765 765 765 765 765 765 765 765 766 766 769 770 760 752 750 751 750 751 751 751 752 753 753 755 755 756 757 758 760 759 762 762 762 768 769 772 780 777 771 770 775 781 781 788 796 797 796 791 790 791 791 792 786 792 805 801 792 789 784 783 783 786 790 790 790 792 791 792 791 791 792 792
790 788 786 784 782 780 778 776 775 773 772 771 769 768 767 765 765 765 764 764 764 764 765 765 767 766 769 765 752 749 751 750 750 750 750 751 752 753 754 754 755 757 757 758 759 760 762 761 763 766 767 771 773 769 773 779 780 785 789 792 800 804 800 792 791 792 792 792 786 794 808 800 790 788 784 783 783 787 792 791 791 792 793 793 792 792 792 792
788 787 784 782 781 779 777 775 773 771 770 769 767 766 765 764 764 764 764 764 763 764 764 765 766 767 770 762 749 749 750 749 750 749 750 751 751 753 753 754 755 756 757 758 759 761 761 762 766 771 771 767 769 776 784 787 786 790 796 800 804 806 801 793 790 791 792 791 787 795 807 799 790 789 785 783 783 786 791 791 791 792 792 793 792 792 792 791
787 785 783 781 779 777 775 773 771 770 768 767 766 764 764 764 764 764 764 763 764 765 765 767 766 767 772 763 750 749 749 749 749 749 750 750 751 753 753 754 755 756 758 758 758 760 760 762 767 771 771 771 777 785 790 794 794 795 800 803 803 804 803 796 791 789 789 791 791 795 802 798 792 789 785 783 783 785 790 790 791 791 791 792 792 791 791 792
786 783 781 779 777 775 773 771 770 768 766 765 764 763 763 763 763 763 764 764 765 765 765 767 766 768 766 755 751 753 749 747 748 748 749 749 751 752 753 754 755 756 757 757 758 759 760 765 770 772 775 780 783 786 798 806 801 798 802 803 801 802 803 799 793 790 788 791 793 795 800 797 792 789 785 784 783 785 789 790 790 791 790 790 791 791 790 791
784 782 780 778 776 773 772 770 768 766 765 763 762 762 763 763 764 764 764 765 765 766 768 767 766 773 768 753 753 752 746 746 747 747 748 749 750 752 753 755 756 757 760 762 762 763 766 769 774 781 783 785 785 789 803 808 799 799 802 802 802 800 801 799 794 789 789 793 794 797 800 795 790 790 786 784 784 785 787 788 789 789 789 790 789 789 789 790
782 780 778 776 774 772 770 768 767 765 764 762 762 762 762 763 764 764 765 766 766 766 768 766 764 770 767 755 750 747 744 746 746 746 747 748 750 752 754 755 757 760 767 773 771 769 771 775 781 788 789 788 789 790 795 796 794 797 799 800 802 800 797 793 788 785 787 794 796 796 796 791 788 789 787 784 784 785 786 786 787 788 789 789 789 788 787 788
781 778 776 774 772 770 768 766 765 764 763 762 762 762 764 766 766 767 766 765 763 758 758 759 757 759 758 751 747 745 745 745 746 746 746 747 749 753 756 757 761 766 772 778 777 772 773 784 790 789 789 788 787 786 786 789 791 794 798 798 799 800 794 785 783 783 782 791 794 791 793 790 786 787 786 784 784 786 786 786 786 786 787 787 788 787 785 786
778 776 774 772 770 768 766 764 763 763 762 761 761 762 763 765 768 769 765 762 755 750 752 752 751 753 750 748 746 745 748 749 747 745 746 747 748 757 762 763 771 777 777 778 778 774 778 790 789 783 785 784 782 784 785 789 790 792 797 797 797 798 791 782 783 784 782 789 790 789 794 791 784 785 785 784 785 785 784 785 785 784 785 784 785 785 784 783
776 773 771 769 767 766 764 763 762 761 761 761 761 761 760 760 763 762 761 764 754 745 749 749 750 751 745 746 746 745 752 756 753 748 746 748 751 761 767 768 777 782 779 779 781 784 789 790 782 778 780 781 782 785 786 789 791 793 795 798 797 792 788 784 785 787 785 789 791 790 794 790 782 782 783 782 781 782 780 780 781 781 781 782 783 784 783 783
774 771 768 767 765 764 762 761 760 759 759 760 760 759 758 758 758 756 760 767 759 746 746 750 751 750 747 748 745 746 756 759 759 753 745 749 756 760 766 772 779 781 781 783 785 793 796 785 775 775 777 780 784 785 787 789 791 792 794 799 796 788 789 789 789 791 787 787 790 792 794 788 782 779 778 779 777 777 778 777 778 778 778 778 779 780 782 782
771 768 766 764 763 762 760 759 758 758 758 758 758 757 757 757 756 756 758 765 763 750 744 745 745 747 747 744 741 747 756 755 755 752 744 749 758 760 764 771 778 782 782 781 784 790 789 776 770 774 775 778 783 783 787 790 792 791 789 794 791 784 787 788 789 791 790 789 787 791 796 787 781 781 777 779 779 777 777 778 778 778 777 776 776 778 779 779
768 765 764 761 761 759 759 758 756 757 757 756 757 755 756 755 754 755 758 768 769 754 744 743 744 743 740 740 741 744 751 752 749 746 742 745 753 760 765 766 773 782 782 781 785 787 782 770 768 773 775 777 782 783 785 787 792 791 783 782 781 778 781 785 789 792 797 798 786 790 805 792 779 780 778 779 783 780 778 779 779 779 777 776 777 777 778 778
765 763 760 759 758 757 758 757 755 757 756 755 755 754 754 754 754 753 761 778 776 756 749 748 747 745 738 742 743 742 756 757 742 739 741 743 746 753 765 768 769 777 778 779 782 782 776 768 767 772 774 778 782 784 783 782 793 795 778 769 771 774 779 785 790 791 798 801 787 788 805 801 782 774 775 780 782 782 781 779 779 778 777 776 776 776 776 777
763 760 758 757 755 756 757 755 755 756 755 754 754 754 754 752 753 752 764 789 784 759 753 751 748 745 741 743 741 747 766 759 742 741 740 742 744 747 764 772 771 772 770 776 784 778 770 769 771 772 773 778 781 782 779 778 790 790 772 766 770 773 778 784 789 790 792 795 792 790 795 803 795 778 777 781 780 783 783 780 778 776 775 774 773 773 773 774
760 757 756 755 753 754 754 754 755 754 753 754 752 753 753 752 753 755 774 801 786 755 751 750 743 740 739 742 742 749 757 750 753 753 737 739 746 749 765 770 769 771 766 775 787 776 766 769 770 770 774 779 776 773 771 774 782 777 767 769 771 772 777 781 788 791 790 794 801 797 793 804 801 780 779 783 780 782 779 776 776 774 773 772 770 770 770 771
758 755 753 752 752 752 752 753 753 752 753 752 751 753 751 751 754 761 785 801 777 751 749 748 744 744 744 748 750 750 749 748 757 753 739 743 746 748 763 764 764 771 766 770 779 771 764 763 761 765 773 774 767 764 765 770 774 768 766 771 772 776 778 782 789 788 791 798 800 796 794 803 797 776 778 786 780 776 771 767 769 768 769 769 767 768 767 769
756 753 752 751 751 751 752 752 751 752 752 751 752 751 749 754 762 780 801 796 771 757 750 747 750 751 752 758 759 755 753 753 752 749 747 751 748 748 756 756 759 769 770 770 772 767 761 757 758 762 763 761 757 758 761 762 764 764 768 774 777 782 780 785 788 785 798 806 795 792 791 797 799 777 771 776 767 761 761 762 763 763 765 766 764 765 765 767
754 753 752 751 751 751 752 752 751 752 752 751 752 749 753 764 775 796 804 781 767 764 754 753 756 754 755 762 764 759 758 757 752 755 759 757 757 759 761 763 765 773 778 776 772 768 764 763 762 755 750 752 755 758 759 759 761 766 772 778 785 791 790 793 793 792 809 809 794 796 793 797 805 780 760 761 756 753 756 755 756 757 759 761 761 762 762 763
754 753 753 751 752 752 752 752 751 751 751 751 751 751 763 779 788 798 791 770 772 773 761 761 761 756 759 761 764 763 761 761 756 759 764 764 768 768 769 774 775 782 791 787 780 774 766 761 758 752 747 749 757 765 765 763 767 772 776 782 793 804 807 807 809 810 815 805 794 796 793 795 798 771 752 754 751 751 751 747 748 749 751 754 757 759 759 761
755 754 753 752 752 752 752 752 751 752 752 750 752 757 771 791 798 794 784 776 777 769 760 763 760 758 761 762 765 763 762 764 760 760 764 766 772 771 769 771 773 782 791 791 788 783 773 760 754 756 751 746 753 765 769 768 770 774 776 781 793 808 817 820 824 823 813 800 792 792 793 794 784 761 749 748 744 744 744 743 743 743 745 748 750 755 757 759
755 754 754 753 753 753 753 753 752 752 752 751 757 767 780 796 797 787 783 780 772 762 760 764 761 760 761 763 765 761 762 766 761 762 766 768 776 778 772 770 771 775 781 787 789 788 789 777 758 754 752 747 749 753 756 758 764 768 767 772 782 790 801 810 813 810 804 800 798 796 795 791 776 757 746 742 741 742 741 740 742 742 743 745 748 753 756 758
756 756 755 754 754 754 754 754 753 753 752 754 763 777 789 798 795 788 784 777 769 766 764 761 760 764 766 764 763 759 761 766 762 764 770 772 779 780 775 772 771 772 779 790 789 784 792 783 755 747 747 745 746 743 742 751 763 768 765 769 776 771 774 791 799 796 797 802 804 800 790 776 762 748 741 742 741 741 742 741 742 744 744 746 749 752 754 756
757 756 757 757 756 756 755 755 755 753 753 759 772 786 792 792 789 785 779 771 771 772 770 766 764 770 773 769 767 763 760 763 765 769 773 775 778 779 777 772 767 769 773 783 786 782 789 779 752 747 748 740 742 742 739 748 760 769 770 768 766 758 759 780 797 798 800 803 798 794 783 767 759 748 739 742 742 740 743 741 741 745 745 747 750 750 752 753
758 757 758 758 758 757 757 756 755 754 754 763 779 789 789 783 778 777 772 768 769 769 773 778 772 773 780 777 774 769 764 764 768 772 776 780 781 780 780 773 766 767 766 771 778 776 782 777 752 748 751 739 736 740 739 739 746 761 769 760 757 760 760 771 790 799 806 807 795 790 787 776 773 763 744 741 742 739 741 742 742 745 746 747 749 749 750 750
757 758 759 760 759 758 757 756 756 755 758 769 783 788 785 780 774 772 769 767 768 767 774 782 776 773 779 781 778 771 768 772 774 774 777 784 786 782 782 779 769 766 764 767 774 770 775 780 759 746 751 743 735 742 748 744 740 747 753 749 755 770 771 774 787 795 803 810 800 792 792 783 777 766 747 740 739 736 741 744 743 745 746 747 748 748 750 750
757 761 764 763 760 759 758 758 756 756 764 778 789 787 783 779 773 769 768 767 769 771 775 779 775 773 776 779 780 774 771 776 777 777 781 789 790 781 780 782 773 768 764 765 772 768 770 784 773 750 746 747 742 747 757 755 747 744 746 748 755 764 769 773 780 783 789 804 804 795 791 777 762 754 744 736 732 733 740 741 740 744 745 746 747 748 749 750
759 765 770 764 760 760 758 757 759 763 773 784 789 786 782 779 773 768 766 766 768 771 775 778 776 778 779 779 780 778 776 777 777 779 785 789 790 782 778 779 777 772 765 763 768 767 768 782 782 759 747 753 755 752 755 756 754 753 754 758 759 761 766 769 775 778 780 791 801 801 794 769 745 741 737 728 727 733 736 734 738 745 745 744 746 747 747 749
762 771 773 763 760 761 758 761 769 776 782 786 787 785 781 778 775 772 768 765 768 769 772 777 779 783 785 781 781 782 780 779 779 782 787 789 791 790 781 777 778 775 769 769 771 770 771 778 781 771 761 762 757 746 744 747 749 751 752 753 754 758 766 774 784 784 778 783 791 797 793 761 734 734 733 726 728 733 734 733 737 744 743 743 746 745 746 747
767 778 775 764 762 760 761 772 781 784 786 787 787 785 780 777 778 778 773 770 772 772 772 777 781 784 786 784 783 784 783 784 786 787 789 790 791 791 782 775 776 773 771 777 776 769 769 774 779 777 767 760 751 740 741 745 744 747 749 748 749 753 760 773 784 780 777 787 787 790 790 758 731 735 736 731 732 733 733 733 735 742 742 743 745 745 746 746
775 779 772 765 763 760 766 782 787 787 789 786 784 783 780 781 783 781 778 778 778 778 779 783 784 785 786 786 785 787 788 790 791 790 791 792 788 784 781 776 775 773 773 779 778 768 768 777 782 777 764 753 743 737 739 741 742 746 748 748 749 751 751 758 768 767 772 784 782 787 791 757 730 736 737 734 735 732 732 733 734 741 743 743 745 745 746 747
781 780 773 769 763 760 775 791 793 793 794 788 786 787 783 783 786 785 785 785 784 783 787 789 788 787 787 786 787 789 790 793 795 792 791 793 789 780 777 777 776 777 777 779 777 771 774 782 785 785 781 769 757 754 754 749 749 752 751 747 744 747 751 755 761 765 771 777 775 781 783 752 730 735 735 733 737 733 734 736 736 740 742 743 745 745 746 748
781 781 778 775 767 767 782 794 795 796 797 793 793 795 791 788 787 787 788 789 787 786 790 792 790 789 789 788 789 790 789 790 795 795 793 793 789 780 777 777 777 777 775 773 770 770 777 784 785 792 803 800 793 792 784 774 771 764 754 748 743 746 750 752 760 767 771 778 776 772 767 745 728 731 733 734 738 735 736 739 739 740 742 742 743 745 747 748
784 787 787 783 777 779 788 792 795 798 798 797 799 800 800 798 792 787 787 790 790 788 790 793 790 790 792 792 794 797 795 791 792 796 797 796 792 785 780 778 777 776 773 769 766 768 778 784 784 790 798 799 798 794 785 783 784 774 760 752 747 748 747 745 756 765 763 771 772 758 754 748 734 731 732 733 737 737 737 740 740 741 742 741 742 744 746 748
790 798 802 798 791 791 793 794 798 800 797 798 802 803 805 806 800 792 789 791 792 791 792 794 794 795 798 797 797 801 802 797 795 798 801 798 793 789 782 777 777 776 772 770 767 770 781 786 785 787 787 785 785 781 777 781 784 777 769 761 751 752 752 745 750 755 753 762 764 751 752 753 739 730 729 728 733 736 736 738 739 739 740 740 741 744 746 748
796 804 808 806 803 803 803 800 801 802 798 798 802 806 809 809 806 802 797 793 793 794 796 800 801 801 803 801 799 804 807 804 802 804 804 800 798 795 786 779 777 775 773 773 770 773 784 787 783 784 784 779 777 776 775 776 776 772 770 766 755 752 752 744 742 746 747 751 750 745 750 749 734 725 724 723 730 734 733 735 736 737 739 740 742 745 747 749
801 806 807 806 806 808 808 805 803 802 801 800 803 808 812 812 810 808 802 798 800 800 800 806 809 804 803 801 801 809 813 809 810 811 805 802 803 801 795 787 780 776 775 777 774 773 782 786 781 782 783 776 772 773 771 771 771 766 763 764 759 752 751 746 745 747 744 742 744 747 750 745 734 729 725 724 729 732 731 734 736 737 739 740 742 745 747 749
808 810 810 807 807 807 807 805 803 803 803 805 808 809 811 813 813 810 803 802 808 807 804 809 811 806 804 803 803 810 812 810 813 812 805 805 806 801 798 792 785 781 780 780 778 775 780 785 781 779 783 778 770 768 767 766 768 765 761 762 758 754 753 750 751 753 748 744 747 750 749 741 733 733 730 726 728 729 731 735 735 736 739 739 742 745 746 748
812 814 814 810 809 810 809 807 807 807 808 811 813 811 812 814 814 811 805 802 806 809 808 809 809 806 805 805 806 808 807 805 808 805 800 803 803 797 794 790 786 787 787 783 779 776 779 784 780 780 789 784 771 770 768 762 762 762 763 765 763 761 759 755 755 760 758 752 748 743 741 737 733 734 733 730 728 728 730 733 735 737 739 739 741 744 745 746
814 814 815 812 811 812 813 811 810 811 812 815 815 812 813 814 811 809 807 803 802 804 805 806 807 807 807 808 806 804 801 800 799 796 793 794 793 791 790 787 785 790 791 785 781 777 777 780 779 784 791 785 775 773 769 765 770 771 767 769 769 766 763 761 760 762 763 762 757 749 744 742 740 739 737 732 730 729 728 730 731 734 737 739 739 741 742 744
Wind_Speed
15 15 15 15 16 16 16 16 16 16 16 16 15 15 14 14 14 14 13 12 10 9 8 7 7 8 9 10 11 12 12 13 12 9 10 14 16 14 12 12 10 16 15 11 14 13 9 5 6 7 4 2 2 1 4 4 2 2 2 1 2 2 3 4 6 5 2 1 2 2 3 3 2 0 0 2 3 1 4 2 3 4 5 8 14 24 27 25
16 16 16 16 16 16 17 17 17 16 16 16 15 15 14 14 14 14 14 13 11 9 8 7 7 8 9 10 11 12 13 14 12 11 14 13 11 10 10 13 12 19 21 14 14 14 10 5 6 7 3 1 2 2 3 3 3 3 3 1 3 4 4 4 6 5 2 1 3 3 3 4 3 1 1 1 1 2 5 3 3 6 7 11 17 23 25 27
17 17 17 17 17 17 17 17 17 17 17 16 15 15 14 14 15 15 15 14 11 9 7 7 7 9 9 10 11 11 12 10 7 8 7 3 6 11 9 12 14 21 23 14 13 14 10 9 13 10 3 2 3 2 3 1 3 3 3 2 5 5 4 3 5 5 4 3 4 3 1 2 3 1 0 2 4 4 4 3 3 5 6 10 13 17 21 23
17 17 17 18 18 18 18 18 18 18 17 16 15 15 14 14 15 15 15 15 12 8 7 6 7 8 8 9 9 10 10 5 3 4 3 2 2 8 13 15 15 19 19 10 8 13 10 10 13 8 3 2 3 2 3 3 3 2 3 4 5 3 2 4 6 5 4 4 4 3 2 0 3 1 1 6 6 2 4 6 5 8 11 12 13 14 17 17
18 18 18 18 18 18 18 18 18 18 18 17 16 15 15 15 15 16 16 15 11 7 6 6 6 7 8 8 8 8 6 2 2 3 3 2 5 4 16 18 16 14 14 10 10 13 9 6 7 3 1 2 2 1 3 5 5 1 3 4 4 3 1 3 5 4 3 3 4 4 2 1 2 2 1 6 6 3 5 5 5 10 13 14 15 15 15 14
19 19 19 19 19 19 19 19 18 18 18 17 16 16 15 15 15 16 16 14 9 6 5 5 6 7 7 6 6 6 2 1 4 4 4 5 5 2 16 20 17 13 13 11 11 11 7 4 4 2 2 1 1 2 4 4 5 2 3 2 3 2 1 1 2 3 3 5 4 3 2 0 2 1 0 3 4 3 2 4 6 9 12 15 16 14 14 13
20 20 20 20 20 20 20 19 19 18 18 17 17 16 15 15 16 16 16 12 6 4 4 5 5 5 5 4 3 4 2 4 8 5 7 8 5 3 17 19 17 16 14 11 9 7 4 5 3 3 2 2 2 3 4 1 3 3 3 2 3 1 1 0 0 0 2 4 3 2 2 2 2 0 1 1 4 3 2 7 8 9 12 14 13 12 12 13
21 21 21 21 21 21 20 20 19 19 18 17 17 16 15 15 16 16 14 9 5 3 3 4 4 4 3 2 1 4 2 7 7 5 6 5 3 6 18 19 17 17 14 12 10 6 4 5 4 2 2 3 1 3 3 1 1 3 4 3 3 1 2 2 3 3 4 2 0 3 3 2 2 1 2 2 4 1 6 10 10 11 11 11 11 12 11 11
21 21 21 21 21 21 21 21 20 19 18 18 17 16 16 16 16 16 11 7 4 3 3 3 4 3 2 1 3 3 4 6 5 4 4 4 3 8 18 18 18 17 12 11 9 7 5 3 4 3 2 3 1 4 2 2 2 4 3 2 4 2 2 3 3 3 3 1 1 3 2 1 1 1 2 3 3 2 9 11 11 12 11 10 10 11 11 10
22 22 22 22 22 22 21 21 20 19 19 18 17 16 16 16 16 14 8 6 4 3 3 3 5 4 4 2 5 0 5 3 4 3 3 4 3 11 18 17 19 19 12 9 9 8 6 5 5 4 3 1 2 4 0 3 3 3 4 4 5 3 2 3 2 1 2 2 1 2 1 1 2 1 2 3 2 5 10 10 11 12 11 10 9 9 10 10
22 22 22 22 22 22 22 21 21 20 19 18 17 16 15 16 15 11 6 6 4 2 3 5 6 5 5 3 5 3 5 4 4 2 3 4 3 10 17 17 19 20 13 8 9 11 7 6 5 2 1 1 3 4 3 3 2 4 6 5 6 5 3 3 2 1 2 1 0 2 1 1 3 1 4 3 2 6 10 10 11 11 10 10 10 9 8 9
22 22 22 22 22 22 22 22 22 20 19 18 17 16 15 15 12 8 6 5 4 2 4 6 8 8 4 2 4 8 6 5 4 3 3 3 2 6 13 14 16 20 17 9 9 15 12 6 3 2 2 1 3 4 2 0 3 3 5 5 4 6 3 3 0 0 2 0 0 2 0 1 1 3 4 1 4 6 8 10 10 9 9 9 9 8 7 8
22 22 22 23 22 23 23 23 22 21 20 18 17 15 14 12 8 6 6 5 3 2 5 7 9 8 3 1 6 8 8 7 7 5 4 5 3 3 7 11 13 16 17 12 8 12 16 12 3 2 3 1 2 3 1 3 3 1 3 4 2 5 3 5 1 2 1 1 2 3 1 4 4 6 3 2 6 7 7 9 9 8 7 8 9 8 7 9
23 23 22 23 23 23 23 23 23 22 20 18 17 15 13 9 5 5 5 4 2 3 6 8 9 6 2 5 6 5 7 9 8 7 6 8 6 2 4 8 10 13 15 14 8 3 8 11 4 1 2 2 2 3 2 4 3 1 1 2 2 2 4 6 2 3 2 1 4 4 1 5 5 6 4 2 6 9 8 9 9 8 7 7 8 9 8 9
23 23 23 23 23 23 23 24 23 22 21 18 16 14 10 5 3 4 4 2 1 5 8 8 8 5 2 6 7 4 6 7 9 11 8 9 9 3 3 8 9 11 13 13 8 2 1 4 2 1 2 1 2 2 2 4 3 2 1 3 3 1 4 7 3 6 4 0 4 4 1 5 5 5 5 2 7 10 10 9 9 9 9 8 8 9 9 9
23 23 23 23 24 23 23 24 23 22 21 19 17 12 5 2 1 2 2 2 6 10 9 6 4 3 1 4 3 1 4 6 8 12 11 11 11 4 2 6 5 6 10 10 7 6 3 3 1 1 1 2 3 4 3 4 4 3 1 3 3 1 3 5 2 4 5 2 2 3 2 3 2 3 4 2 7 9 9 9 9 9 9 9 8 8 8 8
24 23 23 23 24 24 23 23 23 22 21 19 14 6 1 1 2 3 4 8 10 9 7 4 2 1 2 4 2 2 4 6 8 12 15 15 13 7 2 3 2 2 5 7 5 4 1 2 0 1 2 2 2 4 4 3 4 4 2 1 3 2 3 4 3 3 4 3 2 3 2 4 4 2 1 2 5 8 9 9 8 8 8 8 8 8 8 8
24 24 23 23 23 24 24 23 22 21 20 17 8 1 4 5 6 6 7 10 8 5 4 2 2 1 3 4 2 2 2 4 6 10 15 16 14 10 3 3 3 2 2 2 2 2 1 1 2 1 3 2 2 5 2 3 3 2 1 1 3 3 3 4 4 3 6 4 4 4 3 8 8 3 3 2 2 7 8 7 7 6 7 8 8 9 8 9
25 25 24 24 23 23 23 22 21 20 17 10 2 6 7 6 5 5 5 5 3 1 0 2 2 1 2 4 3 4 3 1 4 7 12 14 11 8 2 3 3 2 2 2 2 2 1 2 3 1 3 2 3 4 5 5 4 4 3 1 3 5 5 6 4 5 9 5 5 7 6 7 7 5 6 4 3 5 6 5 5 5 6 6 7 9 9 9
25 25 25 24 23 23 23 21 20 18 13 4 5 7 6 3 3 1 1 1 4 4 1 3 6 2 4 4 2 3 4 1 2 4 8 13 10 6 1 3 4 4 2 2 2 2 2 1 3 6 5 4 5 6 6 4 3 2 1 2 4 5 8 5 3 5 7 5 5 8 6 7 7 6 6 6 4 5 6 6 6 5 5 5 7 9 11 10
27 26 25 24 23 22 21 20 19 15 8 0 5 4 2 2 2 2 2 3 7 8 7 6 7 6 5 2 1 3 3 2 1 1 7 12 10 7 0 2 4 2 2 2 1 2 3 3 7 7 6 5 5 5 4 2 1 1 1 4 6 5 8 5 0 3 5 3 4 4 4 9 9 6 5 6 7 7 8 8 7 7 6 5 5 8 10 7
28 27 26 25 22 21 20 19 17 11 3 2 3 2 1 1 1 2 1 3 8 8 9 6 4 8 8 3 3 2 4 2 3 2 7 11 6 5 1 3 4 2 2 2 1 3 2 5 10 7 6 5 3 3 4 2 2 2 2 3 5 4 4 5 3 1 4 3 3 1 4 9 10 6 6 8 8 7 8 9 8 8 8 6 5 6 7 7
28 27 26 24 21 20 18 17 16 7 3 2 2 3 1 4 5 5 2 1 7 4 4 4 4 7 6 4 6 4 3 3 2 2 9 11 3 4 5 4 5 2 1 3 4 1 2 6 7 4 7 5 2 3 5 2 1 4 4 2 6 4 1 4 4 1 3 3 0 1 2 6 7 4 6 8 7 4 6 8 6 6 7 8 7 6 7 8
29 27 25 22 20 18 16 16 11 1 3 5 5 3 3 8 5 5 4 0 4 4 2 6 5 5 5 3 7 10 4 4 4 3 11 13 4 3 5 5 5 3 3 6 7 5 8 8 2 2 5 6 2 2 4 2 3 5 6 6 7 7 4 5 3 1 1 2 1 3 3 5 3 3 5 3 3 4 4 6 5 5 6 6 6 6 7 8
29 26 23 20 18 15 14 11 2 4 3 6 3 2 6 9 3 5 3 3 3 5 2 3 1 3 5 3 8 10 3 2 5 5 10 13 7 4 2 2 4 4 5 5 6 4 9 8 1 2 1 6 4 4 4 5 3 4 6 10 11 12 8 4 4 3 4 4 2 3 2 5 4 3 5 2 3 5 5 6 7 6 6 6 5 6 6 6
28 24 20 18 17 14 10 3 3 0 5 3 2 5 7 7 1 7 3 5 2 5 2 0 0 2 3 4 5 5 4 2 6 5 9 11 8 5 2 1 1 4 6 5 3 3 5 4 3 4 3 4 3 3 4 7 2 3 5 9 10 9 5 5 6 3 1 3 3 2 3 4 5 4 5 2 5 6 5 7 8 7 8 8 7 7 7 6
27 22 19 16 15 11 5 2 2 2 2 2 2 5 6 6 1 6 3 5 2 3 1 1 0 3 3 3 5 5 3 3 2 4 6 11 7 3 2 3 0 2 4 3 0 3 3 0 2 3 3 2 2 3 5 8 6 3 5 3 4 4 4 7 7 3 2 2 4 3 3 2 5 5 5 2 6 5 5 8 8 8 9 10 9 9 9 8
25 20 17 14 12 9 5 3 3 2 1 1 4 5 5 3 3 3 4 4 2 2 1 2 1 4 1 2 4 3 1 1 2 1 2 9 7 3 1 6 4 4 2 5 2 5 2 2 2 3 2 2 4 4 7 9 5 5 1 4 2 2 4 6 6 2 1 1 4 4 2 1 5 6 4 1 4 6 8 10 10 11 11 11 11 10 10 9
23 19 16 12 9 6 3 3 3 2 1 2 3 4 4 0 3 3 4 2 1 1 1 1 1 2 2 3 2 2 2 2 1 3 2 4 4 3 2 6 5 4 2 4 5 6 3 4 6 5 2 5 7 6 9 11 6 3 5 8 6 5 5 5 4 2 3 2 4 5 4 1 4 6 3 2 2 7 9 9 10 11 12 11 12 11 10 9
21 17 13 8 4 0 1 3 3 2 2 3 3 4 2 2 4 5 3 1 1 1 1 1 0 0 4 4 2 4 2 2 1 2 3 2 0 3 1 2 5 3 1 1 4 7 4 2 3 4 5 6 6 5 8 11 8 2 6 7 7 6 5 4 2 3 3 2 5 6 6 4 2 5 3 3 4 7 8 7 7 9 10 11 11 11 11 9
18 14 10 7 3 3 3 2 2 2 4 5 4 1 2 3 4 5 2 1 1 3 3 2 1 1 5 5 2 2 1 2 3 3 2 1 1 2 1 1 3 3 3 4 4 5 6 2 1 4 6 6 3 3 1 4 5 4 3 4 4 3 4 4 4 4 2 4 5 3 3 4 1 5 5 5 6 5 6 8 10 11 11 11 11 10 11 10
14 11 9 7 3 2 2 2 1 2 5 6 4 3 4 2 2 2 1 3 2 3 3 2 2 0 4 4 0 2 1 1 1 3 3 2 2 2 2 2 2 2 3 4 3 5 5 5 3 3 4 6 4 2 3 4 5 5 4 5 4 2 3 3 3 2 2 5 4 3 4 2 4 8 8 8 8 7 7 9 10 12 12 11 11 11 10 9
11 10 10 8 5 1 1 0 2 4 6 5 3 5 5 4 1 1 2 2 1 2 2 2 4 0 5 4 1 2 2 2 1 2 2 2 1 3 3 2 5 2 1 3 2 4 4 6 2 0 3 4 8 4 2 1 3 5 5 5 4 2 2 2 3 2 3 5 4 3 5 2 4 5 7 9 9 8 9 9 9 10 11 11 10 10 9 10
10 10 10 10 9 4 1 1 3 5 6 4 4 4 4 3 0 1 2 3 3 3 2 2 4 3 4 3 2 2 2 2 2 3 1 2 2 3 4 1 3 3 1 1 2 0 1 5 3 4 1 3 7 7 5 4 4 4 5 6 4 4 3 3 3 3 4 4 3 1 2 3 2 3 6 7 7 5 6 7 6 5 5 5 6 8 9 9
9 12 11 11 12 8 3 2 5 7 6 4 5 4 3 1 2 1 2 4 3 4 6 4 2 4 4 3 2 0 1 2 1 4 2 2 2 2 2 2 2 4 3 0 3 1 1 5 7 4 1 4 5 4 5 6 2 2 3 5 3 5 5 1 3 5 3 1 1 1 3 4 4 6 5 3 5 4 1 5 5 4 3 5 5 7 9 9
10 14 14 14 12 9 8 6 8 9 5 4 6 4 2 1 2 1 2 2 2 4 7 6 4 5 4 4 3 5 4 2 2 3 2 2 2 2 3 3 3 5 5 3 3 1 1 6 7 5 4 5 6 4 5 4 2 1 2 3 5 4 7 4 1 0 2 1 3 2 3 5 4 5 5 4 4 3 3 4 6 5 5 6 6 7 8 9
10 11 12 16 14 9 9 9 10 10 4 6 5 2 2 2 3 3 2 4 4 3 2 3 3 3 2 3 4 5 4 2 2 2 1 0 2 5 6 4 2 3 3 3 4 3 3 7 8 4 6 8 4 5 3 3 4 5 2 5 3 2 4 4 1 2 3 2 4 2 3 5 3 3 5 6 5 4 0 3 5 5 5 6 6 6 7 8
7 6 7 16 17 10 8 11 12 8 4 6 3 1 1 1 1 2 4 5 3 1 3 2 1 1 2 1 3 5 4 3 3 1 1 2 2 3 5 5 3 3 5 4 3 2 2 4 7 4 4 7 3 4 2 4 1 4 5 3 2 2 1 1 2 1 0 2 4 4 4 3 3 4 5 4 6 6 2 1 4 6 6 6 5 6 6 7
5 3 3 14 19 12 8 10 10 5 6 5 2 0 0 2 3 3 6 5 1 2 2 1 1 2 2 2 1 4 3 2 3 1 2 3 1 1 5 3 5 8 9 2 4 2 0 0 6 4 3 4 5 3 0 3 3 1 2 0 2 2 4 2 2 2 2 2 2 4 4 3 6 6 5 8 9 6 5 4 5 6 6 6 5 6 7 7
4 3 1 14 20 11 7 9 6 6 5 3 2 1 1 2 4 6 7 5 3 2 2 1 3 3 2 3 2 3 3 2 3 3 2 3 1 0 7 5 5 10 9 2 2 2 1 2 5 6 4 4 3 1 3 4 2 1 2 2 1 0 1 1 0 1 2 3 2 2 3 5 7 5 7 10 9 6 7 7 5 5 5 6 6 6 7 7
4 4 2 17 19 7 5 7 5 4 3 2 1 2 3 2 3 7 9 7 5 3 3 4 4 3 1 3 3 3 3 3 4 3 3 3 3 1 6 6 6 8 6 5 3 2 1 2 3 5 6 5 5 6 5 7 6 4 4 4 4 3 1 1 3 3 1 3 4 3 2 7 6 3 7 8 5 6 7 6 6 5 6 6 6 6 7 7
5 3 4 20 17 3 4 6 2 3 3 2 3 2 2 3 4 6 8 7 5 4 5 4 4 4 2 2 2 3 4 3 4 3 3 3 3 1 5 7 8 6 2 2 4 4 1 2 1 5 6 6 10 9 6 7 5 4 3 3 3 4 4 4 4 4 1 1 1 3 1 7 6 2 5 6 3 5 6 7 6 5 6 6 6 6 6 5
3 1 6 21 15 2 6 6 3 4 2 3 3 2 2 3 4 5 7 7 5 4 5 4 3 4 3 1 2 3 4 3 3 4 2 2 3 3 5 7 9 6 3 2 4 4 1 1 1 5 6 6 9 7 1 2 3 3 2 1 3 3 4 6 5 3 3 2 2 1 2 6 6 4 3 4 2 5 6 6 7 6 5 5 6 6 5 5
1 3 3 19 18 7 6 3 1 3 3 4 4 5 5 3 4 6 6 6 5 3 4 4 3 3 2 2 3 3 3 2 3 3 1 2 3 6 6 7 8 5 3 2 3 2 2 1 1 2 5 7 8 6 5 5 4 1 4 3 3 5 5 4 2 3 1 3 5 4 4 7 6 4 4 3 2 5 4 3 6 7 6 5 6 5 5 5
2 0 3 12 19 12 5 2 3 1 2 4 5 6 6 4 4 5 5 5 6 3 3 2 2 1 2 3 3 4 5 2 2 2 2 1 3 5 6 9 7 4 3 6 6 2 1 1 3 4 2 1 3 4 4 6 6 4 5 5 2 5 7 5 3 3 2 4 4 5 5 7 7 5 5 4 2 4 3 4 5 4 6 6 6 6 5 5
2 3 3 6 10 8 2 1 3 2 1 2 3 4 6 5 4 4 3 5 6 5 3 2 2 1 2 4 3 4 6 3 2 2 2 3 3 3 8 10 6 5 7 10 9 3 3 2 2 6 5 4 5 6 5 3 4 6 8 8 6 3 3 6 6 3 4 4 3 6 6 4 9 7 5 5 3 4 3 5 5 4 5 5 5 6 6 5
2 2 3 3 4 4 3 4 5 3 1 2 3 3 5 5 4 5 4 4 5 6 3 3 6 4 3 4 3 3 5 4 3 4 2 4 2 4 10 7 3 6 9 8 6 3 4 2 1 5 5 6 7 8 7 3 3 6 8 8 8 8 2 5 5 5 6 6 3 8 5 4 8 7 7 8 6 5 5 6 7 6 6 6 5 6 6 5
3 1 0 0 1 2 2 4 5 5 4 3 3 2 4 5 5 4 4 3 4 5 3 3 7 6 4 3 2 2 5 4 3 3 3 3 4 5 7 4 3 5 7 6 4 3 4 2 4 2 4 7 8 8 6 4 4 6 7 8 8 8 5 4 5 6 8 7 5 5 6 7 8 7 9 9 5 5 6 6 6 6 6 6 7 7 6 6
3 2 2 1 2 1 1 4 4 3 6 5 3 3 3 5 5 3 3 2 3 5 4 3 5 6 5 4 3 2 2 2 2 3 2 3 4 3 4 4 4 4 6 5 4 1 3 2 4 2 5 8 6 6 5 3 5 8 9 8 8 8 8 5 3 5 7 5 4 5 5 9 8 6 8 5 4 4 4 5 6 7 8 8 8 8 8 7
3 1 3 2 3 1 2 3 3 3 5 4 3 2 2 4 5 4 3 2 3 4 3 4 3 6 2 5 4 3 2 2 3 5 3 3 4 2 2 3 3 4 6 3 3 1 1 2 3 1 4 7 5 3 5 6 7 9 10 9 6 5 6 3 2 1 2 3 2 5 3 7 6 4 5 1 6 6 5 6 7 7 8 8 9 8 8 8
3 1 1 2 2 4 3 3 3 3 3 4 3 2 2 3 4 5 3 1 4 2 2 1 3 4 1 4 4 1 3 4 6 9 8 5 5 4 3 4 3 4 5 3 3 2 0 2 2 4 3 6 3 6 9 9 9 8 7 9 10 6 4 2 3 4 3 3 2 2 0 5 5 5 6 2 6 7 7 7 7 6 7 8 9 8 8 8
6 1 2 3 1 3 3 3 3 3 1 2 3 2 2 3 4 4 2 1 2 4 2 1 1 1 2 1 0 3 7 7 9 10 9 8 8 7 7 8 7 5 3 3 3 2 2 2 1 1 2 6 3 5 6 7 8 6 3 5 6 4 3 3 4 6 6 4 3 2 3 6 6 6 7 4 3 6 7 7 6 7 8 8 9 9 9 9
Wind_Direction
2 2 1 360 358 357 355 354 353 351 350 346 345 342 337 334 331 331 330 324 313 302 302 299 293 292 292 296 296 294 300 299 295 278 248 260 266 258 245 236 208 194 189 153 147 144 128 144 177 171 136 142 195 196 175 164 123 84 94 151 250 210 203 196 191 201 193 214 216 217 200 213 260 247 192 57 5 52 112 26 41 53 46 96 120 131 136 138
2 2 1 0 358 356 355 353 353 351 350 347 345 341 336 333 328 328 327 325 315 301 300 299 294 291 292 297 296 301 307 305 299 270 255 263 263 257 225 215 208 192 189 176 166 148 130 181 175 152 137 150 217 179 167 171 150 149 122 166 237 207 212 207 184 193 200 188 184 199 191 204 235 171 161 137 246 172 105 41 58 74 74 101 120 129 134 139
359 359 358 358 356 354 354 352 352 350 349 347 344 341 337 332 328 326 324 323 314 300 298 299 295 290 294 298 299 310 314 314 304 260 251 286 247 234 196 193 200 190 192 190 182 166 146 168 161 148 151 208 239 166 167 193 171 184 127 198 249 207 221 241 189 198 213 157 147 199 184 201 240 175 195 152 158 176 148 148 122 125 132 124 129 130 132 140
358 357 356 355 354 352 351 350 350 348 348 346 343 341 336 331 328 324 322 321 311 297 293 295 293 289 292 298 303 314 320 324 280 238 210 24 11 207 187 180 179 182 194 185 165 172 151 144 156 153 146 219 289 118 170 200 174 183 157 206 244 186 203 233 205 212 205 150 142 172 95 335 259 177 122 132 132 225 215 193 176 163 157 142 143 142 139 143
358 356 355 354 352 350 349 348 347 347 347 345 343 339 335 332 328 324 322 318 308 292 289 292 286 287 292 296 310 320 337 49 238 244 220 291 7 192 185 179 178 182 184 155 136 161 160 141 146 128 122 229 315 81 210 197 155 162 213 217 214 167 187 225 207 206 172 119 114 127 127 242 306 3 142 149 154 234 216 201 190 165 159 151 147 148 149 150
356 355 355 353 352 350 347 346 346 345 345 344 343 338 335 331 326 325 322 316 304 285 283 284 280 284 288 292 319 331 13 120 270 269 260 276 327 206 179 182 190 188 173 153 138 150 158 131 125 146 147 286 232 216 252 209 156 192 263 252 214 195 139 223 208 204 144 115 134 152 177 66 28 356 258 170 195 251 195 154 158 156 153 148 142 148 156 160
355 354 353 352 351 349 347 346 344 342 344 344 342 338 334 330 326 325 322 316 298 281 279 274 276 273 281 292 320 7 86 256 278 272 272 277 300 190 176 183 188 186 180 162 142 144 146 124 161 179 117 316 239 244 270 225 146 188 249 245 214 212 84 345 110 122 79 121 179 166 128 64 67 265 352 225 240 285 127 127 135 142 143 144 142 151 161 165
355 353 352 351 349 348 346 344 343 341 342 343 341 338 333 328 325 323 321 315 295 279 271 260 265 256 269 290 309 3 334 255 271 283 273 262 275 177 176 179 179 185 185 178 164 156 149 140 194 170 89 271 242 320 290 62 47 192 223 209 165 99 69 41 61 43 32 89 191 91 98 78 110 280 315 268 285 315 130 127 131 139 143 149 151 156 162 167
353 352 351 349 348 347 345 343 342 340 340 342 341 337 331 327 324 323 320 310 301 269 261 248 241 227 224 118 78 2 275 248 276 293 262 252 262 178 178 176 178 183 179 186 179 161 172 185 216 182 176 254 324 322 322 76 294 210 188 156 119 79 49 47 61 46 14 333 355 78 73 40 102 296 277 272 310 119 130 130 138 143 151 157 160 164 167 171
351 350 349 347 347 346 344 343 341 340 340 341 340 336 329 326 323 322 317 305 305 269 255 221 212 195 187 153 87 331 267 286 303 286 238 255 234 177 181 181 181 182 175 182 182 169 180 194 201 173 165 256 329 295 162 133 234 169 119 85 84 83 50 41 63 29 359 328 345 120 157 354 8 12 223 288 347 131 130 133 147 149 159 164 167 173 173 178
349 348 347 345 345 345 344 342 341 340 339 339 340 335 327 326 324 321 315 304 302 275 237 201 191 174 165 131 119 209 281 346 332 292 243 252 221 185 188 188 186 185 177 169 191 195 196 199 184 112 126 283 320 302 265 194 148 122 117 76 48 55 40 21 43 328 1 6 135 132 158 4 26 57 224 272 57 138 139 142 156 157 164 169 172 177 181 188
347 345 344 343 343 343 342 341 340 340 338 339 339 334 327 325 325 319 315 310 302 260 208 189 179 169 139 97 191 230 274 328 332 324 249 228 210 201 197 196 195 195 189 170 200 207 203 204 128 77 249 246 331 316 294 192 91 104 105 84 23 29 14 301 265 18 29 304 288 96 45 311 177 214 237 237 113 140 145 150 163 166 170 171 175 181 188 192
345 343 342 340 341 341 340 340 340 339 337 338 337 333 326 322 325 321 320 320 302 227 187 176 176 169 129 237 234 246 267 280 298 298 243 211 192 203 208 207 205 209 205 193 209 211 209 216 173 161 228 137 294 276 80 50 71 89 62 92 42 13 328 277 234 121 107 300 14 68 246 267 245 237 240 105 121 141 151 164 169 171 178 176 180 186 191 193
343 342 339 337 338 338 338 338 338 338 337 337 337 331 322 320 324 322 329 335 316 188 171 163 169 159 128 249 262 290 272 265 274 261 231 215 202 200 214 208 210 214 215 217 225 209 204 216 201 178 229 172 245 280 33 24 33 82 17 66 47 2 293 289 246 148 165 292 54 76 231 266 269 264 257 119 130 153 169 179 177 176 183 183 187 190 193 196
342 340 338 336 336 336 336 336 336 336 336 337 336 328 317 315 327 340 352 347 139 151 147 143 159 144 72 275 277 292 264 253 247 232 224 222 211 213 212 199 209 212 217 226 229 282 234 188 175 220 257 253 52 33 2 357 7 42 339 315 345 205 267 296 250 169 174 257 68 94 223 270 272 277 267 177 140 165 181 186 183 181 185 190 193 192 197 201
340 339 338 335 334 335 334 334 335 335 335 336 333 323 304 290 348 16 33 97 124 131 127 123 152 141 99 279 280 295 253 234 231 222 218 227 218 211 181 185 205 219 224 233 240 276 275 161 153 174 214 318 62 80 31 5 340 359 42 266 284 238 291 313 274 192 177 141 82 133 198 275 277 284 270 173 143 168 188 194 189 187 188 192 197 197 199 201
340 338 337 334 333 332 332 333 333 334 336 336 330 312 232 137 89 79 93 115 119 113 100 99 110 100 262 270 274 285 249 216 220 217 213 224 223 210 141 131 144 192 224 240 254 290 293 131 335 330 43 26 93 91 38 343 294 316 11 269 263 249 283 307 295 239 168 159 200 166 192 252 261 267 243 167 142 159 185 197 194 194 195 194 197 200 201 199
339 337 335 333 332 330 330 332 332 334 337 336 333 167 143 124 101 89 106 122 116 81 58 46 62 49 276 275 260 246 238 203 210 215 213 220 226 219 199 73 96 105 38 344 304 342 4 26 45 22 357 359 97 96 110 239 229 245 253 333 304 288 257 256 271 214 166 192 218 170 216 247 253 241 194 231 168 156 175 184 183 196 202 201 200 201 203 201
339 336 334 332 331 328 328 330 331 335 339 342 59 127 128 121 101 93 103 114 120 123 135 218 167 114 269 263 263 266 296 261 209 214 208 208 213 213 208 45 64 70 54 33 332 358 45 19 40 282 278 260 182 151 188 203 156 159 166 154 284 297 278 239 241 211 171 177 219 195 218 242 243 229 194 206 191 167 175 167 167 185 201 207 206 206 203 202
338 335 332 331 330 326 327 328 330 335 340 352 140 131 120 93 47 33 28 162 210 222 243 194 188 233 296 264 290 315 318 327 202 219 197 191 177 148 106 12 33 38 80 176 272 344 83 165 252 238 229 189 190 195 193 177 118 121 122 299 272 274 280 258 236 230 171 155 235 209 219 256 249 229 199 183 163 180 190 180 183 182 184 200 208 212 205 204
338 336 331 330 328 325 326 326 329 334 339 188 166 152 142 130 48 311 283 258 244 240 246 227 198 235 261 232 16 37 30 353 329 328 181 178 153 130 203 11 62 348 296 168 214 358 70 198 239 233 209 193 202 190 162 166 340 346 278 302 292 255 267 280 249 227 179 170 265 201 200 258 252 225 197 176 166 190 199 191 197 188 177 183 200 215 209 197
339 335 330 329 325 323 324 324 328 327 314 169 188 218 212 159 290 251 196 306 274 239 229 233 214 250 255 252 285 58 61 338 335 10 162 159 145 160 184 81 133 234 314 82 79 349 4 248 251 234 189 189 216 144 136 189 238 250 235 283 287 262 273 312 7 104 171 199 287 175 185 253 258 225 187 184 182 193 200 197 200 187 177 180 185 205 204 181
338 333 329 328 323 322 324 324 326 317 203 193 245 225 272 340 304 240 162 330 285 264 211 200 195 240 254 271 244 175 117 203 219 269 171 150 149 178 140 132 167 168 61 137 165 184 271 253 251 199 152 161 228 156 152 185 237 224 224 243 271 277 288 301 323 70 171 208 212 110 218 261 275 244 200 198 189 175 191 199 206 196 187 185 179 181 192 184
337 332 329 325 320 320 324 324 323 237 202 284 273 228 324 340 325 202 177 35 294 299 213 186 188 208 219 243 195 166 163 199 187 234 176 153 134 148 150 161 150 145 210 189 170 191 243 244 255 62 134 153 213 220 162 208 282 244 219 218 252 265 232 227 240 127 354 299 124 69 336 290 285 257 231 209 162 160 174 185 199 217 211 193 177 177 193 194
338 333 327 323 318 318 328 325 288 159 283 290 256 291 338 340 349 159 153 37 321 293 250 176 220 214 196 151 160 165 155 212 215 212 176 161 147 132 165 165 138 194 211 170 157 212 257 247 200 317 237 147 180 254 198 186 260 294 234 212 231 256 250 192 161 110 31 319 240 103 349 291 312 275 238 176 156 186 176 181 197 211 216 204 190 189 198 205
339 333 327 321 314 319 333 324 165 28 314 252 203 327 335 338 1 151 117 40 332 294 324 99 255 182 166 135 166 152 106 261 240 184 166 170 159 122 136 169 112 209 184 151 161 213 263 257 159 200 217 153 174 251 214 168 147 310 246 203 212 240 238 165 156 134 82 268 276 111 170 262 316 299 258 187 177 197 185 191 202 203 209 208 201 195 195 198
341 333 327 318 313 317 322 227 226 322 315 200 291 321 329 341 100 154 84 38 339 298 13 315 209 158 176 176 172 129 120 266 239 142 165 175 173 84 124 201 212 207 173 124 257 238 214 245 93 137 137 156 206 266 221 158 136 247 253 191 183 201 187 165 155 144 198 230 333 9 150 234 299 282 280 191 176 207 211 208 209 206 210 209 205 202 196 193
343 335 324 315 312 305 276 244 250 219 160 294 306 313 325 344 137 139 71 64 330 320 135 324 97 155 157 143 163 140 209 252 122 238 228 166 174 66 133 220 188 194 184 122 213 261 193 164 190 151 111 212 225 221 188 154 164 244 254 64 56 130 140 141 138 125 5 26 316 296 159 190 269 274 320 80 176 227 229 216 212 209 210 208 206 205 200 192
346 335 325 318 313 299 259 226 199 157 93 332 317 303 300 294 108 72 70 104 317 322 171 12 105 172 36 80 209 315 355 23 137 264 357 138 180 77 162 214 159 172 222 148 215 262 240 208 189 158 170 235 232 209 168 165 205 234 86 69 49 58 80 88 111 111 33 13 261 237 178 158 275 277 328 62 207 237 227 219 213 207 208 208 205 202 199 191
349 341 339 338 324 302 156 210 178 102 14 350 324 290 280 76 69 62 59 62 342 309 273 55 128 126 80 99 289 323 345 325 4 12 31 102 215 42 129 178 111 136 264 315 250 260 270 255 151 169 212 217 234 221 171 180 197 139 72 65 54 40 41 49 62 84 63 311 267 226 184 150 296 279 236 179 216 219 206 210 214 207 205 207 206 200 194 189
354 358 8 10 20 118 106 129 136 52 353 350 338 308 71 48 62 85 85 292 321 326 347 24 8 74 115 130 223 293 295 319 18 60 68 92 73 30 315 320 61 61 356 334 288 288 312 318 179 237 227 191 218 265 204 177 169 126 82 86 78 6 8 19 355 40 95 258 278 252 166 130 227 262 242 225 243 230 197 199 205 206 206 205 202 198 193 187
359 10 14 11 22 126 121 110 120 350 342 343 357 63 81 39 37 89 303 316 350 328 328 336 331 176 146 119 111 245 175 295 4 102 133 133 146 192 225 220 181 36 342 280 291 331 308 256 232 281 247 174 155 266 327 28 88 112 109 100 95 337 358 358 315 352 210 250 260 173 142 144 238 250 257 257 255 240 216 208 204 203 205 203 196 192 191 184
4 12 11 9 12 23 162 203 301 341 345 344 23 60 75 76 68 235 290 334 349 304 305 306 318 232 138 104 352 246 174 218 250 122 125 99 133 256 288 183 161 101 329 235 305 347 313 294 300 192 263 182 147 170 261 354 112 134 142 132 126 110 52 307 280 293 272 274 277 193 170 231 279 266 252 251 252 233 218 217 210 205 206 204 194 183 181 182
11 17 19 21 25 34 124 272 320 338 344 9 67 67 71 85 215 264 309 296 269 300 334 325 326 18 88 105 226 205 168 223 193 135 110 65 66 296 311 325 163 132 82 259 293 232 276 310 271 193 246 159 167 192 188 156 147 166 159 139 142 153 161 237 227 216 258 274 307 302 184 201 240 250 230 238 269 263 222 215 207 212 211 187 170 166 172 182
25 32 33 31 31 36 43 13 359 353 353 41 71 66 83 115 277 299 295 278 284 320 325 336 37 54 27 340 300 347 147 239 154 104 76 95 138 250 269 271 215 140 112 293 271 207 191 264 256 258 351 151 191 217 147 116 110 228 144 116 159 184 156 182 197 179 198 236 298 272 228 212 219 257 263 268 300 316 189 182 172 180 169 138 148 168 175 183
54 47 39 28 26 27 18 13 6 358 7 76 65 55 100 215 230 179 249 290 314 316 327 350 47 65 7 329 336 360 15 16 45 65 37 117 122 329 278 242 216 168 155 178 220 254 305 271 275 313 309 220 206 197 166 161 182 200 140 173 222 184 126 114 223 156 81 191 262 257 257 293 319 289 302 347 326 337 72 145 160 160 151 151 174 181 178 181
78 61 38 18 15 11 0 357 350 349 24 87 76 95 209 237 188 189 271 312 293 295 24 24 20 57 16 333 332 344 0 12 32 59 304 85 49 340 319 296 263 183 204 234 231 224 245 275 280 279 281 275 222 154 179 211 150 129 185 220 212 113 89 103 141 5 34 243 275 301 256 294 340 296 317 346 303 276 314 138 145 139 150 169 188 184 178 179
88 76 37 12 7 1 351 342 339 348 59 78 59 162 209 307 182 213 300 320 296 336 69 87 354 84 108 37 329 327 0 13 359 45 93 40 36 338 341 320 299 336 312 278 231 228 214 278 288 231 232 297 347 86 20 327 70 132 177 191 125 139 267 56 139 187 335 251 285 309 295 279 209 231 284 289 246 233 210 160 146 148 166 180 184 177 168 163
73 73 39 1 357 354 346 333 337 15 72 67 41 172 293 288 291 307 321 333 24 53 52 187 352 59 85 63 334 313 6 35 358 52 87 39 73 32 15 344 288 324 326 246 176 256 119 212 291 265 196 321 348 39 325 297 340 43 156 51 32 154 166 157 156 168 177 208 261 304 327 284 228 221 217 229 231 200 171 197 192 169 171 175 172 168 163 161
52 69 20 349 350 344 336 341 3 49 68 78 150 221 315 290 308 332 343 5 52 54 47 42 14 38 39 14 14 339 6 39 18 53 74 25 101 21 7 8 313 319 331 10 143 281 22 154 263 290 322 328 317 280 212 193 181 190 208 233 302 258 157 185 5 81 130 151 191 262 311 272 251 213 198 225 229 186 178 196 190 164 162 168 168 166 166 166
36 68 314 344 349 333 345 14 34 51 67 68 79 285 326 6 353 342 349 13 48 59 66 76 57 58 11 354 18 350 354 25 24 53 72 28 62 24 357 7 326 312 341 18 9 316 325 181 228 290 313 297 259 242 207 180 175 180 198 204 191 185 174 222 299 318 101 137 169 169 245 268 262 207 213 232 211 177 186 181 165 157 159 163 165 166 168 169
49 85 332 351 354 324 44 45 14 37 79 22 344 282 310 10 13 349 351 11 43 49 41 54 56 51 42 12 356 354 18 28 10 44 75 35 64 25 330 346 331 319 33 24 301 266 206 128 223 273 268 264 270 261 210 175 170 165 205 222 164 140 131 152 235 263 132 125 169 129 209 269 269 238 245 257 211 171 182 169 153 150 157 158 155 158 159 156
65 146 351 4 9 125 79 47 333 11 38 303 320 300 319 22 18 354 7 19 25 34 32 27 16 29 44 16 350 16 32 31 23 48 73 28 24 315 315 345 342 343 39 17 303 275 239 100 290 285 285 293 295 292 237 140 139 146 248 246 140 145 150 157 185 188 150 172 165 99 279 269 278 288 276 273 198 161 181 176 147 135 145 152 150 153 150 141
84 229 330 12 26 77 90 62 320 4 337 314 10 11 352 39 43 16 27 19 359 29 56 25 3 14 10 357 23 21 9 57 63 33 50 69 338 304 323 357 353 359 26 338 306 302 318 353 62 351 343 335 334 350 5 356 6 357 273 259 166 133 114 118 130 113 171 214 154 137 245 256 273 311 354 15 115 154 184 168 130 133 148 158 153 149 148 142
44 199 263 4 28 56 93 127 144 123 331 353 34 23 360 9 25 26 49 31 5 31 72 13 344 21 359 1 35 16 2 66 94 2 12 43 308 297 333 348 343 352 335 312 318 340 41 26 87 94 71 311 313 320 316 322 325 311 300 296 256 139 134 142 124 110 220 228 146 154 226 264 291 323 356 2 119 160 163 110 102 122 141 155 157 146 149 153
68 41 311 336 17 45 70 60 81 104 40 34 48 33 15 358 331 344 42 53 19 19 54 23 346 37 43 29 46 24 2 3 56 52 21 336 321 306 325 327 318 321 332 337 345 42 111 51 106 136 157 190 210 235 250 279 290 293 310 315 303 276 166 125 105 142 194 173 181 218 210 269 301 305 314 301 209 182 175 136 131 133 135 152 161 151 153 156
91 52 2 326 348 21 20 11 32 34 17 91 77 27 11 2 336 337 8 50 27 16 40 32 14 27 24 16 53 37 349 336 21 44 351 318 323 305 312 310 285 317 337 349 353 48 87 357 190 157 187 211 216 240 255 251 235 270 298 299 293 296 285 122 136 195 165 130 242 254 191 208 272 265 253 252 219 198 198 173 167 165 157 158 153 144 143 140
68 122 331 331 333 8 11 348 352 5 20 65 84 46 20 17 13 354 342 3 27 23 26 20 14 16 7 7 84 46 345 343 13 9 321 319 335 320 319 311 258 313 345 354 347 73 106 242 234 200 256 244 230 239 247 247 249 267 284 276 271 278 262 200 190 189 154 152 228 231 171 211 254 252 237 231 199 188 197 177 162 155 151 148 143 145 150 149
60 73 304 9 67 187 252 313 316 6 29 41 52 47 47 29 13 335 304 341 14 7 32 56 351 342 6 37 85 97 7 351 338 317 295 332 335 319 325 314 284 328 3 353 318 87 115 252 245 248 294 282 256 240 246 292 315 312 307 286 264 260 252 244 232 188 176 192 205 149 176 239 259 264 252 224 133 135 154 139 140 149 154 156 153 156 162 162
56 45 314 13 33 328 287 326 351 46 33 30 38 28 50 45 13 324 300 47 50 351 24 81 326 310 11 60 75 112 157 203 234 256 261 326 319 269 258 269 266 334 351 334 297 324 45 278 251 104 330 301 294 304 313 334 335 317 312 317 317 291 263 268 1 335 222 246 195 137 189 263 268 285 288 187 119 122 129 142 161 167 166 163 159 160 164 167
24 238 2 74 28 350 339 340 28 69 33 14 21 359 16 33 359 320 298 88 102 65 14 37 305 304 356 68 79 140 259 250 236 240 238 240 246 234 238 252 261 328 328 284 272 304 353 276 307 52 354 290 313 0 339 335 338 327 329 342 342 326 282 288 40 32 341 306 280 142 184 275 282 327 333 1 127 139 155 166 171 172 173 168 163 166 170 172
11 315 32 84 80 2 359 341 13 65 68 355 354 350 14 8 343 345 336 320 72 74 51 118 125 349 350 58 29 292 285 274 258 254 248 241 239 234 240 253 259 267 266 257 272 254 187 216 260 69 301 275 306 355 339 347 351 330 320 328 310 291 306 341 31 27 6 344 303 257 249 273 297 330 325 298 184 169 177 180 178 175 176 175 172 173 175 179